Location: Ajisawe
(8.4333°N, 4.3833°E)
Time: 23:46:14
(UTC+00:00)

S-56A Canister/Altair - Pass Details

Date: 19 April 2021
Orbit: 631 x 2501 km, 38.9° (Epoch: 15 May)

Event Time Altitude Azimuth Distance (km) Brightness Sun altitude
Rises 04:48:38 0° 343° (NNW) 2,905 10.5 -11.2°
Reaches altitude 10° 04:53:07 10° 27° (NNE) 2,108 10.4 -10.1°
Maximum altitude 04:53:56 10° 37° (NE) 2,117 10.6 -9.9°
Drops below altitude 10° 04:54:47 10° 47° (NE) 2,183 10.9 -9.7°
Sets 05:00:02 0° 88° (E) 3,455 12.9 -8.4°
